User: anonymous   Login
Location: Columbia
(38.9520°N, 92.3340°W)
Time: 07:45:51
(UTC-05:00)
Language:

FENGYUN 3A - Orbit

View from above orbital plane
View from above orbital plane
View from above satellite
View from above satellite

Ground track
Ground track

The orbit data is extracted from the following two-line orbital elements,

1 32958U 08026A   17266.25068826  .00000037  00000-0  36768-4 0  9996
2 32958  98.4019 290.0024 0009862   3.8684 356.2577 14.19674309483241
Epoch (UTC): 23 September 2017 06:00:59
Eccentricity: 0.0009862
inclination: 98.4019°
perigee height: 819 km
apogee height: 833 km
right ascension of ascending node: 290.0024°
argument of perigee: 3.8684°
revolutions per day: 14.19674309
mean anomaly at epoch: 356.2577°
orbit number at epoch: 48324

The dashed part of the orbit path shows where the satellite is in the earth's shadow,  

DLR